TKSAT-1 (TUPAC KATARI)

Last updated on Wed Sep 09 2026 00:03:00 GMT+0000 (Coordinated Universal Time)

1 39481U 13075A 26251.49908219 -.00000215 00000+0 00000+0 0 9996 2 39481 0.0426 314.4492 0002024 208.6242 276.9247 1.00269113 46435
UTC large
Height (km)
Speed (km/s)
/
Latitude / Longitude
Inclination (degrees)
Orbital Period (minutes)
Azimuth
Elevation
Range (km)
Doppler Factor

Next 0 passes for location: London (51.5072 / 0.1276)

No passes found over London.
TKSAT-1 (TUPAC KATARI)